Rota International Airport
PGRO : now visible

Airfield :











YOU CAN JOIN US ON...

 
LOGIN :

Register | Disclaimer

   EN    FR    IT 

 









Legend :    VFR   Marginal VFR   IFR   Intensive IFR   Very Intensive IFR
Visi :
Ceiling :
>= 8 km
>= 3000ft
5 to 8 km
1000 to 3000 ft
1500m to 5 km
500 to 1000 ft
800 to 1500m
200 to 500 ft
< 800m
< 200 ft
Symbols :   Thunderstorms  Fog  Heavy snow  Heavy precipitations  Wind > 20 kt







- Airport Elevation : 607 ft
- IATA code : ROP


PGRO - Rota International

CURRENT METAR :
  • 260550Z 09016KT 7SM FEW014 BKN130 30/23 A2982 RMK WIND DATA ESTIMATED

EXPIRED METARs :
  • 260450Z 10016KT 7SM SCT013 BKN120 30/23 A2983 RMK WIND DATA ESTIMATED
  • 260350Z 09014KT 7SM FEW013 SCT120 30/22 A2984 RMK WIND DATA ESTIMATED

TAF PGRO
Valid from the 26 at 06:00 until the 27 at 06:00 UTC


260520Z 2606/2706 10015KT P6SM SCT013
PGZU FIR / Oceania



MET'MAP, your aeronautical weather chart ! - Copyright ORBIFLY December 2007 - Disclaimer

ORBIFLY MET'MAP TEAM :

Programming & Development : Alexandra Zaïnal
Concept & Development : Baudouin d'Aumeries
Co-Development & Prog : Marc-Olivier Méhu
Technical & hardware support : Manuel Goepfert

Contact : metmap@orbifly.com




SOURCES & CREDITS :

   NOAA       Earth
Advisory